Regional Weather Roundup
Issued by NWS

Home | Current Version | Previous Version | Text Only | Print | Product List | Glossary On
Versions: 1 2 3 4 5 6 7 8 9 10 11 12 13 14 15 16 17 18 19 20 21 22 23 24 25 26 27 28 29 30 31 32 33 34 35 36 37 38 39 40 41 42 43 44 45 46 47 48 49 50
000
ASUS42 KTBW 230116
RWRFL
FLORIDA REGIONAL WEATHER ROUNDUP
NATIONAL WEATHER SERVICE TAMPA BAY RUSKIN FL
800 PM EST WED FEB 22 2017

NOTE: "FAIR" INDICATES FEW OR NO CLOUDS BELOW 12,000 FEET WITH NO
SIGNIFICANT WEATHER AND/OR OBSTRUCTIONS TO VISIBILITY.

FLZ001>010-012>015-112-114-115-230200-
PANHANDLE FLORIDA

CITY           SKY/WX    TMP DP  RH WIND       PRES   REMARKS
PENSACOLA      PTCLDY    69  59  70 N5        29.77R
PENSACOLA NAS  MOCLDY    66  60  81 N7        29.76R
MILTON NAS     PTCLDY    63  60  90 N5        29.78R
CRESTVIEW      CLEAR     62  58  86 CALM      29.79R
DUKE FIELD     PTCLDY    65  58  79 NE5       29.78R
VALPARAISO     PTCLDY    66  60  79 N7        29.76R
MARY ESTHER    CLEAR     64  57  78 NE7       29.76R
PANAMA CITY    MOCLDY    68  60  75 N6        29.75R
TYNDALL AFB    CLEAR     67  60  77 NE6       29.75R
APALACHICOLA   MOCLDY    67  63  87 NE8       29.71S

STATION/POSITION SKY/WX   TEMP    WIND        PRES    WAVE   SWELL
                          AIR SEA DIR/SP/G            HT/PER HT/PER
                          (F)     (DEG/KT/KT) (MB)    (FT/S) (FT/S)
30.1N   87.6W              68 68  340/ 14/ 16 1007.4    3/ 4   2/ 7
28.8N   86.0W              67 71              1005.4    4/ 6   3/ 6
PANAMA CITY BEAC           69      40/  6/  8 1007.7R
TOWER C                    65      40/ 12/ 13 1006.5R
28.5N   84.5W              68 70   10/ 12/ 14 1004.7    3/ 6   3/ 6

$$
FLZ011-016>038-118-127-128-134-139-239-230200-
NORTH FLORIDA

CITY           SKY/WX    TMP DP  RH WIND       PRES   REMARKS
MARIANNA       CLEAR     64  62  93 NE5       29.76R
TALLAHASSEE    CLOUDY    67  62  84 NE6       29.74R
PERRY          CLEAR     65  63  90 E5        29.73S
CROSS CITY     PTCLDY    64  63  94 E8        29.71F
LAKE CITY      MOCLDY    63  63 100 E5        29.75S
GAINESVILLE    LGT RAIN  65  62  90 NE9       29.73S
WILLISTON      PTCLDY    66  64  94 NE5       29.72S
PALATKA        LGT RAIN  64  64 100 E12       29.75R
MAYPORT NAS    LGT RAIN  65  62  90 E7        29.78S
JACKSONVILLE   LGT RAIN  64  62  93 E9        29.77S
JAX NAS        LGT RAIN  64  63  96 NE10      29.78R FOG
FERNANDINA BEA CLOUDY    64  63  94 E7        29.78S
ST AUGUSTINE   LGT RAIN  65  62  90 E16       29.78S FOG

STATION/POSITION SKY/WX   TEMP    WIND        PRES    WAVE   SWELL
                          AIR SEA DIR/SP/G            HT/PER HT/PER
                          (F)     (DEG/KT/KT) (MB)    (FT/S) (FT/S)
SHELL POINT      NOT AVBL
KEATON BEACH               64      60/  9/ 10 1005.8R
CEDAR KEY                  65      50/ 11/ 14 1005.4F
FERNANDINA                 63 66              1009.5R
30.7N   81.3W                 63                N/A     5/ 8
MAYPORT                    65 66  100/  6/ 10 1008.6F
31.4N   80.9W              66 63  100/ 12/ 16 1008.7    6/ 8   5/ 8
ST AUGUSTINE               64 67   70/ 15/ 16 1008.6F

$$
FLZ040-043>046-052-053-057-058-063-144-230200-
INTERIOR CENTRAL FLORIDA

CITY           SKY/WX    TMP DP  RH WIND       PRES   REMARKS
OCALA          MOCLDY    63  59  88 NE6       29.71R
THE VILLAGES     N/A     64  64 100 SE6       29.61R
LEESBURG       CLOUDY    65  62  90 NE9       29.70R
SANFORD        CLOUDY    64  62  93 E5        29.70R
ORLANDO EXEC   CLOUDY    64  62  93 E6        29.69R
ORLANDO INTL   LGT RAIN  65  62  90 E8        29.69S FOG
KISSIMMEE      RAIN      63  62  97 S10       29.69R
WINTER HAVEN   LGT RAIN  61  59  93 NE12      29.68R
LAKELAND       MOCLDY    59  59 100 NE5       29.68R
BARTOW         MOCLDY    61 N/A N/A E6        29.68R
OKEECHOBEE     PTCLDY    63  61  94 NE3       29.67S

$$
FLZ041-047-054-059-064-141-147-230200-
EAST CENTRAL FLORIDA

CITY           SKY/WX    TMP DP  RH WIND       PRES   REMARKS
DAYTONA BEACH  LGT RAIN  64  63  96 NE3       29.72R FOG
DELAND         RAIN      64  64 100 CALM      29.71R
NEW SMYRNA BEA LGT RAIN  66  64  94 E7        29.70R
JFK SPACE CTR  LGT RAIN  65  63  93 SE5       29.68R
TITUSVILLE     CLOUDY    64  63  94 SE8       29.69R
CAPE CANAVERAL LGT RAIN  65  62  88 SE9       29.68R
PATRICK AFB    LGT RAIN  66  63  88 SE13      29.67R
MELBOURNE      HVY RAIN  66  64  93 E10       29.67S FOG
VERO BEACH     LGT RAIN  64  63  96 NE6       29.67R
FT PIERCE      CLOUDY    63  63 100 NE3       29.66R
STUART         PTCLDY    66  64  94 CALM      29.66S

STATION/POSITION SKY/WX   TEMP    WIND        PRES    WAVE   SWELL
                          AIR SEA DIR/SP/G            HT/PER HT/PER
                          (F)     (DEG/KT/KT) (MB)    (FT/S) (FT/S)
TRIDENT PIER               66 71  120/  7/ 11 1006.2R
28.4N   80.5W                 71                N/A     5/ 7
27.5N   80.2W                 72                N/A     5/ 7

$$
FLZ050-056-061-142-242-148-248-149-249-151-251-155-255-
160-260-230200-
WEST CENTRAL FLORIDA

CITY           SKY/WX    TMP DP  RH WIND       PRES   REMARKS
CRYSTAL RIVER  HVY RAIN  61  61 100 CALM      29.70S
INVERNESS      CLOUDY    63  63 100 NE5       29.70S
BROOKSVILLE    MOCLDY    62  60  93 N8        29.66F
CLEARWATER AIR FAIR      63  61  94 CALM      29.66R
ST PETE CLEARW MOCLDY    64  60  87 NE5       29.66R
TAMPA INTL     CLOUDY    64  59  83 N3        29.67R
TAMPA EXEC       N/A     59  55  88 CALM      29.68R FOG
PLANT CITY     PTCLDY    61  61 100 NE5       29.69R
MACDILL AFB    CLOUDY    61  61 100 CALM      29.66R
PETER O KNIGHT CLOUDY    63  61  94 N5        29.67R
ST PETERSBURG  CLOUDY    64  61  90 E8        29.64S
SARASOTA       MOCLDY    67  61  81 SW6       29.64R
VENICE         FAIR      68  61  77 W8        29.66R

STATION/POSITION SKY/WX   TEMP    WIND        PRES    WAVE   SWELL
                          AIR SEA DIR/SP/G            HT/PER HT/PER
                          (F)     (DEG/KT/KT) (MB)    (FT/S) (FT/S)
27.3N   84.2W                 71                N/A     5/ 6
CLEARWATER BEACH           65      80/  6/  7 1004.5R
MIDDLE TAMPA BAY           65     130/  2/  2 1004.2S
VENICE                     66 71  240/  4/  4 1003.4F

$$
FLZ066-069-070-075>078-162-262-165-265-230200-
SOUTHWEST FLORIDA AND KEYS

CITY           SKY/WX    TMP DP  RH WIND       PRES   REMARKS
PUNTA GORDA    CLOUDY    65  56  72 CALM      29.67R
FT MYERS       PTCLDY    65  59  81 SW3       29.65S
SOUTHWEST INTL MOCLDY    67  60  78 W5        29.66R
NAPLES         CLOUDY    70  62  76 W9        29.66S
MARCO ISLAND   MOCLDY    70  61  73 W8        29.66S
MARATHON       LGT RAIN  72  62  71 W13G22    29.67S
KEY WEST NAS   CLOUDY    67  60  78 SW7       29.69R
KEY WEST INTL  CLOUDY    69  61  75 W6        29.69R

STATION/POSITION SKY/WX   TEMP    WIND        PRES    WAVE   SWELL
                          AIR SEA DIR/SP/G            HT/PER HT/PER
                          (F)     (DEG/KT/KT) (MB)    (FT/S) (FT/S)
NAPLES                        73              1004.2S
26.0N   85.6W              71 75  310/ 19/ 23 1006.2R   6/ 7
DRY TORTUGAS               71     300/ 13/ 14 1005.1F
SAND KEY                   69                 1005.8R
LONG KEY                   71 74  310/ 16/ 18 1004.5S

$$
FLZ067-068-071>074-168-172>174-230200-
SOUTHEAST FLORIDA

CITY           SKY/WX    TMP DP  RH WIND       PRES   REMARKS
W PALM BEACH   MOCLDY    66  63  90 W6        29.65R
BOCA RATON     MOCLDY    66  63  88 W6        29.64S
FT LAUDER-EXEC CLOUDY    67  62  84 CALM      29.64S
FT LAUDERDALE  CLOUDY    66  64  93 SW8       29.63S
POMPANO BEACH  CLOUDY    67  63  87 SW5       29.64R
PEMBROKE PINES MOCLDY    67  63  87 SW8       29.66R
OPA LOCKA      PTCLDY    67  63  87 S12       29.66R
MIAMI          PTCLDY    67  65  93 W8        29.65S
WEST KENDALL   PTCLDY    67  63  87 W7        29.65S
HOMESTEAD      PTCLDY    67  66  99 W8        29.65R

STATION/POSITION SKY/WX   TEMP    WIND        PRES    WAVE   SWELL
                          AIR SEA DIR/SP/G            HT/PER HT/PER
                          (F)     (DEG/KT/KT) (MB)    (FT/S) (FT/S)
PORT EVERGLADES            68     230/  6/ 10 1003.5R
VIRGINIA KEY               69     270/ 12/ 15 1004.3R
FOWEY ROCKS                71 74  200/ 19/ 21 1003.9S

$$




USA.gov is the U.S. government's official web portal to all federal, state and local government web resources and services.